Charles City, IA

7:40 PM CDT on October 20, 2017 (GMT -0500)
Charles City Municipal

Weather History for KCCY - March, 2014

Change the Weather History Date:

Monday, March 17, 2014

  Actual Average Record
Temperature  
Mean Temperature 28 °F -  
Max Temperature 37 °F 40 °F 86 °F (2012)
Min Temperature 19 °F 24 °F -4 °F (1959)
Degree Days  
Heating Degree Days 37    
Moisture  
Dew Point 20 °F    
Average Humidity 73    
Maximum Humidity 80    
Minimum Humidity 65    
Precipitation  
Precipitation 0.00 in - - ()
Sea Level Pressure  
Sea Level Pressure 29.76 in    
Wind  
Wind Speed 15 mph (SSE)    
Max Wind Speed 26 mph    
Max Gust Speed 36 mph    
Visibility 10 miles    
Events      
Averages and records for this station are not official NWS values.
T = Trace of Precipitation, MM = Missing Value Source: NWS Daily Summary

Daily Weather History Graph

Daily Weather History Graph

Search for Another Location

Airport or City:

Trip Planner

Search our weather history database for the weather conditions in past years. The results will help you decide how hot, cold, wet, or windy it might be!

Date:

Astronomy

Mar. 17, 2014 Rise Set
Actual Time 7:18 AM CDT 7:19 PM CDT
Civil Twilight 6:50 AM CDT 7:47 PM CDT
Nautical Twilight 6:17 AM CDT 8:20 PM CDT
Astronomical Twilight 5:43 AM CDT 8:54 PM CDT
Moon 8:39 PM CDT (3/17) 7:32 AM CDT (3/17)
Length of Visible Light 12h 56m
Length of Day
12h 00m
Full, 99% of the Moon is Illuminated
Mar 17
Full
Mar 23
Last Quarter
Mar 30
New
Apr 7
First Quarter
Apr 15
Full

Hourly Weather History & Observations

Time (CDT) Temp. Windchill Dew Point Humidity Pressure Visibility Wind Dir Wind Speed Gust Speed Precip Events Conditions
12:15 AM 19.4 °F 8.6 °F 12.2 °F 74% 30.07 in 10.0 mi South 9.2 mph - N/A   Scattered Clouds
12:35 AM 19.4 °F 7.9 °F 12.2 °F 74% 30.06 in 10.0 mi South 10.4 mph - N/A   Mostly Cloudy
12:55 AM 19.4 °F 8.6 °F 12.2 °F 74% 30.06 in 10.0 mi SSE 9.2 mph - N/A   Overcast
1:15 AM 19.4 °F 8.6 °F 12.2 °F 74% 30.07 in 10.0 mi SSE 9.2 mph - N/A   Overcast
1:35 AM 21.2 °F 9.5 °F 14.0 °F 74% 30.04 in 10.0 mi South 11.5 mph - N/A   Overcast
1:55 AM 21.2 °F 7.8 °F 14.0 °F 74% 30.02 in 10.0 mi SSE 15.0 mph - N/A   Overcast
2:15 AM 21.2 °F 8.9 °F 14.0 °F 74% 30.02 in 10.0 mi South 12.7 mph - N/A   Overcast
2:35 AM 21.2 °F 8.3 °F 14.0 °F 74% 30.01 in 10.0 mi South 13.8 mph - N/A   Overcast
2:55 AM 21.2 °F 7.8 °F 14.0 °F 74% 30.00 in 10.0 mi South 15.0 mph - N/A   Overcast
3:15 AM 21.2 °F 7.8 °F 14.0 °F 74% 29.98 in 10.0 mi South 15.0 mph - N/A   Overcast
3:35 AM 21.2 °F 6.8 °F 15.8 °F 80% 29.94 in 10.0 mi SSE 17.3 mph - N/A   Overcast
3:55 AM 21.2 °F 6.8 °F 15.8 °F 80% 29.93 in 10.0 mi SSE 17.3 mph - N/A   Mostly Cloudy
4:15 AM 21.2 °F 7.8 °F 15.8 °F 80% 29.94 in 10.0 mi South 15.0 mph - N/A   Overcast
4:35 AM 23.0 °F 9.2 °F 15.8 °F 74% 29.93 in 10.0 mi South 17.3 mph - N/A   Overcast
4:55 AM 21.2 °F 7.8 °F 15.8 °F 80% 29.92 in 10.0 mi South 15.0 mph 21.9 mph N/A   Overcast
5:15 AM 23.0 °F 9.6 °F 15.8 °F 74% 29.91 in 10.0 mi South 16.1 mph 23.0 mph N/A   Mostly Cloudy
5:35 AM 21.2 °F 7.3 °F 15.8 °F 80% 29.89 in 10.0 mi South 16.1 mph - N/A   Mostly Cloudy
5:50 AM 21.2 °F 6.8 °F 14.0 °F 74% 29.88 in 10.0 mi South 17.3 mph - N/A   Mostly Cloudy
6:15 AM 21.2 °F 7.3 °F 14.0 °F 74% 29.87 in 10.0 mi South 16.1 mph - N/A   Scattered Clouds
6:35 AM 21.2 °F 8.3 °F 14.0 °F 74% 29.87 in 10.0 mi South 13.8 mph 20.7 mph N/A   Mostly Cloudy
6:55 AM 21.2 °F 7.3 °F 14.0 °F 74% 29.86 in 10.0 mi South 16.1 mph - N/A   Mostly Cloudy
7:15 AM 21.2 °F 7.3 °F 14.0 °F 74% 29.85 in 10.0 mi South 16.1 mph - N/A   Mostly Cloudy
7:35 AM 21.2 °F 6.4 °F 14.0 °F 74% 29.85 in 10.0 mi South 18.4 mph - N/A   Overcast
7:55 AM 21.2 °F 6.4 °F 14.0 °F 74% 29.84 in 10.0 mi South 18.4 mph 24.2 mph N/A   Overcast
8:15 AM 21.2 °F 6.0 °F 15.8 °F 80% 29.83 in 10.0 mi South 19.6 mph - N/A   Overcast
8:35 AM 21.2 °F 5.6 °F 15.8 °F 80% 29.82 in 10.0 mi South 20.7 mph - N/A   Mostly Cloudy
8:55 AM 21.2 °F 5.2 °F 15.8 °F 80% 29.81 in 10.0 mi South 21.9 mph - N/A   Clear
9:15 AM 23.0 °F 8.3 °F 15.8 °F 74% 29.80 in 10.0 mi South 19.6 mph 26.5 mph N/A   Scattered Clouds
9:35 AM 23.0 °F 8.0 °F 17.6 °F 80% 29.79 in 10.0 mi South 20.7 mph 27.6 mph N/A   Scattered Clouds
9:55 AM 23.0 °F 7.6 °F 15.8 °F 74% 29.78 in 10.0 mi South 21.9 mph - N/A   Scattered Clouds
10:15 AM 24.8 °F 10.7 °F 17.6 °F 74% 29.79 in 10.0 mi SSE 19.6 mph - N/A   Mostly Cloudy
10:35 AM 24.8 °F 9.3 °F 17.6 °F 74% 29.77 in 10.0 mi South 24.2 mph - N/A   Mostly Cloudy
10:55 AM 24.8 °F 9.3 °F 17.6 °F 74% 29.74 in 10.0 mi SSE 24.2 mph 31.1 mph N/A   Scattered Clouds
11:15 AM 24.8 °F 10.7 °F 17.6 °F 74% 29.76 in 10.0 mi South 19.6 mph 28.8 mph N/A   Clear
11:35 AM 26.6 °F 13.1 °F 19.4 °F 74% 29.74 in 10.0 mi South 19.6 mph - N/A   Scattered Clouds
11:55 AM 26.6 °F 12.0 °F 19.4 °F 74% 29.72 in 10.0 mi SSE 23.0 mph - N/A   Mostly Cloudy
12:15 PM 26.6 °F 11.4 °F 19.4 °F 74% 29.70 in 10.0 mi South 25.3 mph - N/A   Overcast
12:35 PM 28.4 °F 14.4 °F 21.2 °F 74% 29.69 in 10.0 mi South 23.0 mph 31.1 mph N/A   Scattered Clouds
12:55 PM 30.2 °F 15.9 °F 21.2 °F 69% 29.67 in 10.0 mi SSE 26.5 mph 32.2 mph N/A   Partly Cloudy
1:15 PM 30.2 °F 15.9 °F 23.0 °F 75% 29.66 in 10.0 mi South 26.5 mph 32.2 mph N/A   Partly Cloudy
1:35 PM 32.0 °F 19.2 °F 23.0 °F 69% 29.67 in 10.0 mi South 23.0 mph 29.9 mph N/A   Clear
1:55 PM 32.0 °F 19.5 °F 23.0 °F 69% 29.65 in 10.0 mi South 21.9 mph 32.2 mph N/A   Clear
2:10 PM 33.8 °F 21.6 °F 24.8 °F 70% 29.64 in 10.0 mi South 23.0 mph 28.8 mph N/A   Clear
2:35 PM 33.8 °F 21.6 °F 24.8 °F 70% 29.62 in 10.0 mi South 23.0 mph 35.7 mph N/A   Clear
2:55 PM 35.6 °F 24.8 °F 26.6 °F 70% 29.62 in 10.0 mi South 19.6 mph 29.9 mph N/A   Clear
3:15 PM 35.6 °F 24.5 °F 26.6 °F 70% 29.60 in 10.0 mi South 20.7 mph 29.9 mph N/A   Clear
3:35 PM 35.6 °F 24.5 °F 26.6 °F 70% 29.60 in 10.0 mi South 20.7 mph - N/A   Clear
3:55 PM 37.4 °F 27.5 °F 26.6 °F 65% 29.60 in 10.0 mi South 18.4 mph - N/A   Clear
4:15 PM 37.4 °F 28.2 °F 26.6 °F 65% 29.61 in 10.0 mi South 16.1 mph 26.5 mph N/A   Clear
4:35 PM 37.4 °F 28.2 °F 26.6 °F 65% 29.60 in 10.0 mi South 16.1 mph 23.0 mph N/A   Clear
4:55 PM 37.4 °F 28.2 °F 26.6 °F 65% 29.59 in 10.0 mi South 16.1 mph - N/A   Clear
5:15 PM 37.4 °F 28.9 °F 26.6 °F 65% 29.59 in 10.0 mi SSE 13.8 mph - N/A   Clear
5:35 PM 37.4 °F 28.9 °F 26.6 °F 65% 29.59 in 10.0 mi South 13.8 mph 20.7 mph N/A   Clear
5:55 PM 37.4 °F 28.9 °F 26.6 °F 65% 29.59 in 10.0 mi SSE 13.8 mph 19.6 mph N/A   Clear
6:15 PM 37.4 °F 29.8 °F 26.6 °F 65% 29.59 in 10.0 mi SSE 11.5 mph 17.3 mph N/A   Clear
6:35 PM 37.4 °F 30.8 °F 26.6 °F 65% 29.60 in 10.0 mi SSE 9.2 mph - N/A   Clear
6:55 PM 35.6 °F 29.2 °F 26.6 °F 70% 29.60 in 10.0 mi SE 8.1 mph - N/A   Clear
7:15 PM 35.6 °F 29.2 °F 26.6 °F 70% 29.61 in 10.0 mi SE 8.1 mph - N/A   Scattered Clouds
7:35 PM 35.6 °F 29.2 °F 26.6 °F 70% 29.61 in 10.0 mi SE 8.1 mph - N/A   Partly Cloudy
7:55 PM 33.8 °F 25.8 °F 26.6 °F 75% 29.61 in 10.0 mi SE 10.4 mph - N/A   Clear
8:15 PM 33.8 °F 26.4 °F 26.6 °F 75% 29.62 in 10.0 mi SE 9.2 mph - N/A   Partly Cloudy
8:35 PM 33.8 °F 25.8 °F 26.6 °F 75% 29.62 in 10.0 mi SE 10.4 mph - N/A   Clear
8:55 PM 33.8 °F 24.8 °F 24.8 °F 70% 29.63 in 10.0 mi SE 12.7 mph - N/A   Partly Cloudy
9:15 PM 33.8 °F 24.8 °F 24.8 °F 70% 29.63 in 10.0 mi SE 12.7 mph - N/A   Clear
9:35 PM 33.8 °F 23.9 °F 24.8 °F 70% 29.63 in 10.0 mi SE 15.0 mph - N/A   Clear
9:55 PM 33.8 °F 23.5 °F 24.8 °F 70% 29.63 in 10.0 mi SE 16.1 mph - N/A   Clear
10:15 PM 33.8 °F 23.5 °F 24.8 °F 70% 29.63 in 10.0 mi SE 16.1 mph - N/A   Scattered Clouds
10:35 PM 33.8 °F 23.2 °F 24.8 °F 70% 29.63 in 10.0 mi SE 17.3 mph - N/A   Scattered Clouds
10:55 PM 32.0 °F 20.8 °F 24.8 °F 75% 29.63 in 10.0 mi SE 17.3 mph - N/A   Scattered Clouds
11:15 PM 32.0 °F 22.1 °F 24.8 °F 75% 29.63 in 10.0 mi SE 13.8 mph - N/A   Partly Cloudy
11:35 PM 32.0 °F 21.6 °F 24.8 °F 75% 29.63 in 10.0 mi SE 15.0 mph - N/A   Partly Cloudy
11:55 PM 32.0 °F 21.6 °F 24.8 °F 75% 29.63 in 10.0 mi SE 15.0 mph - N/A   Partly Cloudy